This is the latest recevied weather packets stored in our database for station/object KF6RAL-6. If no packets are shown the sender has not sent any weather packets the latest 10 day(s).
| Time | Temp. | Humidity | Pressure | Rain* | Wind** | Luminosity | Snow |
|---|---|---|---|---|---|---|---|
| 1777728959 | 11.11° C | 65% | 1018.6 hPa | 0 mm | - | - | - |
| 1777728539 | 10.56° C | 66% | 1018.8 hPa | 0 mm | - | - | - |
| 1777728117 | 10.56° C | 67% | 1018.8 hPa | 0 mm | - | - | - |
| 1777727275 | 9.44° C | 69% | 1018.2 hPa | 0 mm | - | - | - |
| 1777726854 | 9.44° C | 70% | 1018.2 hPa | 0 mm | - | - | - |
| 1777726433 | 8.89° C | 69% | 1018.2 hPa | 0 mm | - | - | - |
| 1777726012 | 8.89° C | 67% | 1018.7 hPa | 0 mm | - | - | - |
| 1777725592 | 8.89° C | 68% | 1018.7 hPa | 0 mm | - | - | - |
| 1777725170 | 8.89° C | 67% | 1018.7 hPa | 0 mm | - | - | - |
| 1777724749 | 8.89° C | 65% | 1018.6 hPa | 0 mm | - | - | - |
| 1777724328 | 9.44° C | 65% | 1018.4 hPa | 0 mm | - | - | - |
| 1777723907 | 9.44° C | 63% | 1018.4 hPa | 0 mm | - | - | - |
| 1777723486 | 8.89° C | 62% | 1018.9 hPa | 0 mm | - | - | - |
| 1777723065 | 8.89° C | 59% | 1018.9 hPa | 0 mm | - | - | - |
| 1777722644 | 8.33° C | 58% | 1018.7 hPa | 0 mm | - | - | - |
| 1777722222 | 7.78° C | 59% | 1018.2 hPa | 0 mm | - | - | - |
| 1777722009 | 8.33° C | 60% | 1018.8 hPa | 0 mm | - | - | - |
| 1777721802 | 8.33° C | 60% | 1018.8 hPa | 0 mm | - | - | - |
| 1777721381 | 9.44° C | 58% | 1018.5 hPa | 0 mm | - | - | - |
| 1777720960 | 10.56° C | 55% | 1018.2 hPa | 0 mm | - | - | - |
| 1777720538 | 10.56° C | 57% | 1018 hPa | 0 mm | - | - | - |
| 1777720118 | 10.56° C | 61% | 1017.9 hPa | 0 mm | - | - | - |
| 1777719696 | 10.56° C | 62% | 1018.1 hPa | 0 mm | - | - | - |
| 1777719276 | 10.56° C | 60% | 1018.1 hPa | 0 mm | - | - | - |
| 1777718854 | 10° C | 57% | 1018.5 hPa | 0 mm | - | - | - |
* Rain latest hour (hover to see other rain measurements)
** Current wind speed in m/s (hover to see current wind gust speed)